Location: ???????
(55.4362°N, 38.1183°E)
Time: 17:29:54
(UTC+00:00)

Aureole 3 - Pass Details

Date: 17 June 2021
Orbit: 382 x 1227 km, 82.5° (Epoch: 30 July)

Event Time Altitude Azimuth Distance (km) Brightness Sun altitude
Rises 22:21:10 0° 340° (NNW) 2,429 7.7 -10.4°
Reaches altitude 10° 22:23:10 10° 330° (NNW) 1,630 6.5 -10.3°
Maximum altitude 22:26:21 33° 265° (W) 904 4.3 -10.2°
Enters shadow 22:29:28 14° 206° (SSW) 1,698 5.2 -10.1°
